Location: Ebersheim
(48.3033°N, 7.4991°E)
Time: 09:17:53
(UTC+00:00)

Cosmos 2026 Rocket - Pass Details

Date: 27 February 2020
Orbit: 938 x 1002 km, 82.9° (Epoch: 09 April)

Event Time Altitude Azimuth Distance (km) Brightness Sun altitude
Rises 19:47:43 0° 349° (N) 3,670 7.4 -26.7°
Reaches altitude 10° 19:50:15 10° 348° (NNW) 2,710 6.7 -27.1°
Maximum altitude 19:56:25 75° 265° (W) 989 4.0 -28.1°
Enters shadow 19:58:26 44° 191° (S) 1,284 4.5 -28.4°
